GFSGL_250_spd_159.txt.gz
Wind_Speed
109 110 107 107 107 108 109 110 111 116 117 119 117 116 111 109 106 103 101 100 99 100 101 104 108 111 112 110 101 87 79 74 68 66 68 71 74 76 79 80 80 84 88
110 110 108 108 109 112 114 117 118 119 119 117 114 111 109 105 104 103 101 100 101 104 107 111 113 115 110 101 88 82 80 82 79 73 76 78 78 77 77 79 83 83 83
109 108 109 112 115 116 118 121 121 115 113 111 108 107 105 104 103 103 102 104 108 111 114 115 114 109 97 89 87 89 92 91 87 81 76 79 82 85 81 81 81 84 86
110 112 114 117 120 121 122 118 116 114 111 110 108 104 103 101 102 103 107 112 115 116 117 115 107 96 89 88 92 96 96 92 88 84 81 78 78 82 84 85 87 88 87
118 118 120 120 119 117 117 113 111 111 111 108 104 102 101 103 108 112 116 119 119 119 115 107 97 92 92 96 97 94 90 88 85 83 82 81 79 80 82 85 87 90 95
121 120 119 116 114 114 114 112 112 110 107 104 104 107 108 112 117 120 121 124 123 117 107 100 99 100 99 98 96 91 88 85 84 83 85 85 85 86 87 88 88 89 90
116 111 108 110 112 113 111 109 105 106 107 109 112 115 119 123 125 126 124 123 116 107 104 105 106 102 98 95 95 92 91 89 86 85 85 87 87 90 90 92 94 92 92
106 106 106 107 106 104 104 105 106 109 113 117 121 123 126 129 129 128 120 114 111 110 110 107 103 101 100 98 96 96 95 94 92 90 87 86 86 86 87 90 92 95 95
104 103 102 102 102 104 107 110 114 116 120 123 127 131 131 128 123 117 115 113 114 114 110 106 106 103 100 100 97 95 94 93 92 92 93 91 91 89 89 86 86 86 86
100 101 101 104 106 110 113 118 121 123 127 129 130 130 126 121 116 115 115 115 110 108 107 106 105 104 101 99 96 93 93 94 96 98 98 95 90 88 85 83 79 80 82
101 101 106 111 114 117 120 124 126 128 128 129 125 120 117 117 118 116 110 105 106 106 108 106 105 104 101 96 95 96 96 95 92 88 86 85 85 84 83 83 79 75 72
108 108 112 116 120 123 126 128 129 127 123 117 116 117 119 117 112 107 106 105 105 105 105 105 104 102 100 100 97 93 90 87 84 82 81 79 79 79 80 80 78 77 71
115 116 118 120 123 125 123 121 119 115 116 117 117 115 108 103 105 104 103 104 103 103 103 102 102 102 99 95 91 87 84 82 81 80 79 78 76 76 77 80 78 76 75
118 120 119 118 116 113 112 113 114 114 113 109 103 100 99 99 101 102 102 103 103 103 103 102 99 96 93 91 89 87 85 83 82 81 81 79 78 76 74 75 77 76 75
113 111 108 107 109 110 110 107 104 101 97 97 99 97 98 99 100 100 101 103 103 104 102 99 97 95 93 91 89 86 85 82 81 80 79 77 74 72 72 71 71 72 72
102 106 105 102 98 96 93 92 91 92 94 95 96 97 98 97 99 100 101 101 100 98 97 97 94 93 91 90 88 87 85 83 80 78 77 76 73 69 67 66 64 65 67
89 86 86 85 85 86 87 88 88 90 93 95 94 95 96 97 99 98 95 93 93 92 92 91 90 89 87 86 84 84 84 81 79 77 75 73 70 65 60 59 59 58 58
74 74 74 77 78 79 82 85 88 90 90 90 92 94 93 92 91 90 90 89 87 87 87 86 86 84 83 81 80 80 79 78 76 74 70 67 64 59 54 51 51 54 54
64 66 68 72 75 79 81 83 85 87 88 87 86 87 87 87 86 85 84 83 82 81 80 79 80 80 79 77 76 75 75 75 73 68 65 62 60 56 51 49 48 47 50
62 66 69 71 74 77 80 81 82 81 81 82 82 82 82 81 80 78 78 77 76 77 76 76 75 74 73 72 72 72 72 71 68 64 61 58 56 53 51 48 46 44 45
60 65 69 73 75 76 76 77 78 77 77 78 78 78 78 77 75 74 73 72 72 73 73 73 72 71 69 69 69 69 69 68 65 61 58 55 53 50 48 46 44 42 41
66 68 68 69 71 72 73 73 74 74 74 74 75 75 75 74 73 73 71 70 70 71 71 70 69 69 69 68 68 67 65 63 61 59 55 51 49 48 46 45 43 42 40
61 63 65 66 67 69 70 71 72 72 72 71 71 70 71 71 71 71 70 70 69 68 68 68 67 66 66 66 66 65 62 59 57 57 55 50 47 44 44 43 44 43 40
58 60 63 66 69 70 71 72 73 72 71 70 69 68 67 68 68 69 70 69 69 68 67 67 67 66 65 64 62 60 59 56 55 54 53 51 48 45 42 41 41 42 42
58 61 64 67 70 71 72 73 72 70 69 68 67 67 67 66 66 66 67 68 67 65 64 64 64 64 64 63 62 59 55 53 52 51 50 49 48 46 44 41 40 40 41
58 60 62 64 66 67 68 68 69 69 69 68 67 66 66 66 66 65 65 65 65 65 64 63 63 63 63 62 60 58 55 52 50 47 47 47 46 45 45 43 41 39 39

GFSGL_250_spd_162.txt.gz
Wind_Speed
101 102 102 100 102 105 108 110 113 112 111 113 117 120 122 121 118 115 111 109 106 103 101 96 95 96 99 101 105 109 110 107 102 94 81 75 74 74 77 79 83 83 80
104 102 103 104 107 111 113 112 113 116 118 120 123 123 119 115 115 113 111 108 103 98 97 98 101 104 109 112 115 114 112 106 94 80 78 76 78 79 82 86 85 87 86
102 105 107 110 112 112 112 115 118 121 124 125 123 118 115 111 111 110 105 102 99 100 102 106 110 113 117 118 118 115 104 97 91 86 87 87 85 85 83 82 80 81 83
107 109 110 111 111 113 117 121 124 127 127 123 118 112 109 108 106 104 102 103 104 107 110 114 117 119 121 118 113 105 100 97 96 94 88 83 81 80 77 74 75 78 79
111 110 110 113 117 120 123 125 126 125 122 115 111 108 108 105 105 105 107 109 113 117 119 121 121 120 117 111 106 105 106 103 94 88 84 79 77 76 74 75 74 77 79
113 115 117 119 122 125 127 126 119 115 112 109 108 106 105 105 108 112 115 117 121 123 124 125 124 119 112 110 110 109 102 93 89 85 80 77 76 77 77 78 77 77 78
119 121 123 123 126 126 120 113 110 106 106 105 106 109 107 109 116 119 122 126 126 127 127 123 118 114 114 115 110 102 99 96 90 85 83 82 79 78 78 79 81 80 81
123 125 128 124 120 110 104 103 101 103 105 107 109 112 118 118 122 126 128 129 129 127 122 117 118 118 114 108 103 101 97 93 91 87 83 81 79 79 77 78 79 80 81
128 120 114 102 102 101 101 102 104 107 110 113 117 119 122 126 128 130 131 128 123 119 118 119 117 114 105 101 99 97 95 94 94 92 90 89 86 81 78 76 75 74 70
109 99 100 102 102 105 109 111 113 115 118 120 125 126 125 127 129 129 124 119 117 119 118 115 110 103 102 96 95 92 92 92 93 93 88 85 82 78 76 73 69 69 66
101 102 104 108 110 113 117 118 119 122 124 125 126 127 128 126 122 118 117 118 118 115 111 105 102 98 95 92 91 92 92 90 87 85 83 82 81 78 75 74 70 67 65
107 110 113 115 117 119 123 125 123 125 126 125 124 121 118 117 116 116 114 112 110 104 100 98 96 93 93 93 93 90 87 84 82 81 80 79 79 77 74 71 68 67 63
115 117 120 121 123 123 124 125 125 121 119 114 112 113 114 112 109 108 105 101 99 98 96 93 93 94 93 91 88 85 84 83 81 79 77 75 74 74 73 72 69 68 65
119 122 124 125 125 122 118 114 111 109 109 110 109 106 103 101 99 98 99 97 95 93 93 93 91 89 87 86 85 83 82 80 80 79 77 75 74 72 71 71 70 70 69
124 122 118 114 111 106 104 104 104 104 101 98 96 95 95 95 95 94 93 92 93 92 91 89 87 86 86 85 83 81 80 78 78 76 74 72 71 71 69 69 68 68 66
111 106 101 101 101 100 96 92 88 89 89 89 89 88 87 87 87 88 89 89 89 88 88 88 86 85 84 84 83 81 79 78 76 75 73 71 70 69 69 68 65 61 60
98 97 95 90 84 79 78 77 77 78 78 78 80 82 85 86 85 85 86 87 87 86 87 87 86 85 83 82 81 80 80 78 76 73 72 71 70 68 66 64 61 56 53
82 77 73 71 71 70 68 67 67 69 74 78 81 81 81 83 84 85 86 87 88 87 86 85 83 82 81 80 79 79 77 75 73 72 69 68 68 65 62 59 55 51 48
66 63 59 58 56 57 59 64 69 71 73 75 78 81 81 82 83 85 85 85 83 82 81 80 80 79 78 77 77 76 75 73 71 69 67 66 65 62 58 54 53 47 44
52 50 50 52 55 58 61 63 65 69 72 75 76 77 78 77 77 76 77 77 78 78 77 76 76 76 74 73 73 72 71 70 68 67 65 63 62 59 55 52 50 46 39
43 47 50 53 54 56 60 63 65 67 68 72 74 75 77 75 72 70 70 70 71 72 72 71 71 71 71 70 69 68 67 66 66 65 63 61 59 55 51 49 47 45 40
44 46 49 51 54 56 57 60 62 65 69 72 75 76 76 74 72 69 67 66 66 67 68 67 67 67 67 67 65 64 63 63 63 63 61 59 56 52 48 46 44 42 40
44 46 49 50 50 53 55 59 64 66 68 71 72 73 73 73 72 70 68 67 65 66 66 66 65 64 64 64 64 62 61 60 60 60 60 57 53 49 46 43 41 40 39
43 44 45 46 48 52 56 61 63 66 68 70 70 71 71 72 72 70 69 68 66 65 65 65 65 64 62 61 61 61 60 58 58 57 56 54 51 49 45 41 39 37 37
40 41 43 46 48 52 55 57 61 65 66 68 69 69 71 71 71 71 70 69 68 66 64 64 64 64 63 62 60 59 58 57 56 56 54 51 49 48 45 40 39 37 35
36 38 42 46 50 52 54 58 60 62 65 67 68 71 71 71 71 71 71 70 69 67 65 63 64 64 63 62 61 60 58 55 55 54 53 49 47 45 43 40 38 36 35

GFSGL_250_spd_165.txt.gz
Wind_Speed
97 98 100 100 102 104 107 109 110 110 111 111 114 116 115 116 119 122 124 126 126 116 109 105 104 102 98 98 97 98 100 102 105 106 108 106 104 99 91 86 85 84 86
98 100 103 105 107 110 110 110 112 112 114 116 115 116 119 122 124 129 127 125 114 107 104 103 101 102 102 102 105 108 111 114 114 112 110 104 95 90 89 90 90 89 89
103 104 107 110 110 110 112 112 113 115 116 115 118 121 124 125 129 124 121 109 105 104 102 103 105 107 110 111 114 117 118 118 118 112 104 98 98 96 94 88 84 81 82
109 108 108 110 112 113 111 114 114 116 117 120 122 126 128 128 125 115 108 106 104 105 106 109 113 115 119 121 123 122 122 122 116 109 104 101 96 91 84 80 80 81 80
112 111 109 108 109 112 114 114 116 117 120 124 128 130 129 115 106 106 105 109 111 113 116 117 120 122 126 126 125 126 123 114 110 110 104 97 88 83 81 79 77 75 76
111 112 112 113 114 118 115 118 118 122 125 128 129 117 106 107 108 111 114 117 121 124 124 124 126 127 129 129 127 121 114 114 109 104 98 92 89 83 80 79 78 78 76
113 116 120 120 118 118 117 119 122 124 129 120 110 105 108 111 114 118 121 125 128 128 130 132 132 131 129 125 120 117 115 110 102 97 92 88 84 84 81 80 82 81 82
121 120 117 117 118 119 122 122 122 122 115 104 108 110 114 118 122 125 127 129 132 132 133 133 130 126 121 119 118 115 108 103 97 93 89 87 84 84 83 82 81 80 80
119 118 120 123 121 122 123 116 111 103 105 107 111 116 121 125 128 129 132 132 132 133 129 124 121 119 118 116 110 106 101 97 94 92 89 88 87 84 80 77 76 74 71
125 124 126 126 124 119 115 102 110 109 113 115 120 124 126 129 132 132 132 129 125 121 118 118 117 114 108 104 102 99 96 94 92 92 89 85 82 80 77 73 71 70 66
115 111 105 103 101 101 106 107 111 117 119 121 127 129 131 129 129 128 122 118 115 117 116 111 106 104 101 97 94 92 91 91 89 87 86 85 82 79 76 72 70 67 64
98 99 100 103 105 108 112 115 118 122 126 128 129 128 125 123 117 115 117 115 111 107 105 103 99 95 94 92 92 91 88 86 85 84 82 82 81 77 75 72 69 66 59
105 108 110 111 113 115 119 122 126 127 125 124 122 116 113 112 113 110 105 103 101 97 94 93 93 93 92 90 89 88 86 84 83 81 79 78 76 73 72 71 67 66 60
113 115 117 117 121 124 125 125 124 123 119 113 109 108 107 104 100 97 94 92 91 90 91 91 91 91 90 87 85 85 83 82 79 77 76 75 73 70 70 69 68 66 64
118 120 122 123 123 122 119 118 114 109 106 106 101 96 92 88 84 84 86 88 89 88 88 89 90 89 87 85 82 81 81 79 76 74 75 74 72 70 69 68 67 66 62
120 121 120 116 113 110 105 101 102 100 93 88 84 79 76 78 79 79 81 84 86 88 88 87 87 86 85 83 81 79 78 76 74 72 70 70 69 68 67 66 65 64 62
114 109 105 100 97 98 98 94 85 79 75 71 70 70 72 73 74 77 80 82 82 83 82 81 81 80 79 79 78 77 76 73 71 69 67 67 66 65 65 64 63 63 61
94 92 93 93 91 85 75 71 67 63 63 66 68 66 69 72 74 74 75 76 79 80 80 78 77 76 75 75 74 73 72 71 69 67 65 64 64 63 62 62 59 59 58
87 85 81 73 65 61 60 59 59 61 61 61 64 65 67 68 70 70 73 75 77 79 77 76 74 72 71 71 71 70 69 69 67 65 63 61 60 60 58 58 58 55 54
65 61 56 52 49 50 52 53 52 54 57 60 62 61 63 65 69 72 74 75 76 77 75 73 72 70 69 69 67 67 65 65 65 63 62 60 58 56 56 56 54 53 49
45 43 43 43 47 48 46 48 51 54 57 56 57 59 64 67 71 73 73 73 74 75 74 72 70 69 68 66 65 65 62 61 61 61 59 57 56 54 52 52 51 49 47
36 39 42 42 42 44 46 49 52 51 50 54 59 62 66 66 69 70 71 72 72 73 72 71 69 68 67 65 64 62 60 60 59 59 57 54 53 51 50 50 48 46 42
36 37 37 39 41 44 47 46 44 47 51 55 59 62 64 66 69 69 71 71 71 71 72 71 70 69 66 64 64 63 60 59 59 58 55 52 49 48 47 47 45 43 40
33 34 37 39 42 42 39 41 44 49 52 55 58 62 65 66 68 68 70 71 70 70 72 71 70 68 65 63 62 62 61 60 59 58 55 52 48 46 44 42 41 39 38
33 35 37 40 35 36 39 42 46 50 52 54 58 61 63 66 68 70 71 73 72 71 72 71 70 68 65 63 61 60 59 59 58 56 54 50 48 47 43 39 38 37 36
32 34 33 31 33 37 41 45 48 51 55 57 61 63 65 68 70 72 73 74 73 72 73 72 71 68 66 64 62 61 59 58 56 55 53 49 47 45 41 38 37 36 35

GFSGL_250_spd_168.txt.gz
Wind_Speed
96 97 100 102 103 101 100 101 104 104 102 104 108 111 112 114 111 112 115 116 119 120 122 122 124 117 101 100 100 102 104 105 108 110 112 112 113 113 114 114 114 110 106
101 101 101 101 101 101 104 105 101 104 108 110 112 115 113 113 114 117 120 119 121 122 124 125 119 104 104 106 108 111 114 115 116 117 119 119 117 116 113 111 108 103 101
102 102 103 102 103 102 105 104 107 109 111 114 115 114 115 117 122 123 121 123 125 127 127 119 106 106 108 113 117 120 122 124 125 123 122 122 118 115 110 105 103 102 102
101 102 104 106 107 107 106 109 110 113 115 113 114 116 122 124 121 122 123 126 128 117 107 106 109 115 116 120 124 127 128 128 126 124 121 117 111 106 105 103 101 96 91
108 107 105 106 107 107 107 110 114 115 116 117 120 123 122 123 124 125 127 123 114 108 110 115 118 122 124 127 131 132 130 128 123 119 114 113 112 110 101 94 90 88 87
106 105 107 107 108 110 114 116 114 115 117 123 122 120 123 126 127 124 118 106 111 112 118 122 124 129 132 131 131 129 125 121 119 120 120 115 106 98 96 93 87 84 83
105 106 108 111 112 115 116 114 114 119 120 119 122 125 119 116 111 103 105 113 117 120 125 128 131 132 131 130 129 124 121 120 120 114 108 103 99 93 90 89 88 85 83
112 110 111 112 112 112 115 119 122 119 119 120 110 104 103 104 106 111 115 120 124 128 131 131 132 131 128 127 123 121 122 114 107 105 100 96 93 90 88 86 83 81 80
109 109 108 109 114 118 120 119 118 114 111 104 109 107 110 112 116 119 123 126 129 129 130 129 128 125 122 122 120 112 109 107 102 99 96 93 89 84 80 78 78 75 73
107 110 113 113 114 115 116 116 114 112 108 109 112 115 117 119 123 124 127 127 129 129 129 125 121 121 119 111 110 108 104 100 99 95 90 87 84 81 78 76 74 73 71
108 109 111 111 115 112 110 105 104 107 109 112 116 121 124 125 126 127 127 127 125 121 118 118 115 110 106 102 98 98 96 95 96 94 89 85 81 78 77 74 71 68 67
108 111 112 111 112 108 108 107 109 112 115 117 121 125 127 126 126 126 122 118 115 115 111 108 105 99 96 95 95 94 94 92 91 89 85 81 77 74 74 71 70 66 62
106 105 103 105 108 109 111 115 118 120 120 122 124 123 122 124 121 117 113 113 110 104 99 94 91 91 91 92 93 92 91 90 89 86 82 78 74 71 71 70 67 66 61
111 111 111 113 114 117 120 120 121 121 122 120 119 118 116 114 111 110 107 101 97 92 88 86 86 88 89 89 89 88 86 85 84 82 79 75 71 69 68 67 66 64 63
116 116 116 115 118 121 120 119 119 118 116 114 111 108 106 107 105 100 94 88 84 83 81 83 83 84 84 84 84 83 81 78 78 76 74 72 68 67 65 65 63 62 61
120 118 117 115 113 112 111 111 111 108 105 102 101 102 101 96 91 86 81 79 78 78 78 78 79 80 81 81 81 79 76 74 72 71 69 68 65 64 63 62 59 58 58
98 99 100 100 100 100 100 100 98 97 96 97 96 92 87 82 75 73 72 72 73 74 73 73 76 78 79 78 79 79 76 73 70 69 67 66 64 61 61 59 57 56 56
85 85 83 86 87 88 88 90 91 91 91 86 81 77 70 67 66 66 67 68 67 68 71 74 77 78 79 78 77 77 75 73 70 67 65 63 62 61 61 59 55 54 53
73 73 75 76 79 82 83 82 80 76 74 70 65 63 60 61 62 62 62 62 65 70 72 74 76 77 77 75 75 74 74 73 70 66 63 60 60 60 59 58 56 53 52
57 58 60 61 63 64 63 63 63 61 59 58 54 55 56 56 57 57 60 64 67 71 72 73 75 76 76 74 74 73 71 71 68 64 61 59 58 58 58 57 54 53 50
45 45 46 48 50 51 51 51 51 50 47 48 51 50 50 51 53 58 63 67 70 72 73 72 74 75 75 74 73 72 71 70 68 63 59 57 56 55 54 53 51 49 49
38 38 39 40 41 42 43 42 40 41 43 44 44 46 49 54 57 60 65 69 72 72 74 74 74 74 74 74 74 72 70 69 67 63 59 56 55 52 51 49 48 47 47
31 33 35 37 37 36 35 36 37 40 39 40 43 47 52 57 61 63 67 70 72 73 73 73 74 73 74 74 74 72 70 68 66 63 60 56 54 50 47 45 45 45 45
33 32 32 32 32 32 33 35 36 36 38 41 45 49 55 59 62 65 68 71 72 72 72 73 75 74 74 73 74 71 70 69 66 63 60 57 53 49 45 43 42 43 44
29 29 29 30 30 31 32 34 33 35 39 44 49 53 57 61 64 66 69 72 72 71 71 73 75 73 74 74 73 70 69 67 65 63 60 57 53 50 46 43 42 40 39
27 28 28 27 27 28 30 32 35 39 43 47 51 56 60 62 66 67 69 70 72 71 72 72 74 74 74 74 73 70 68 66 64 62 59 55 53 50 47 44 42 39 37

GFSGL_250_spd_171.txt.gz
Wind_Speed
97 98 98 98 98 98 99 100 100 99 102 104 104 102 102 104 104 106 108 109 112 114 113 116 122 124 120 118 117 116 110 99 106 109 114 117 118 122 123 122 122 122 120
104 104 104 103 102 102 102 101 103 105 106 102 100 105 105 106 108 108 109 112 112 114 118 124 121 119 116 107 100 99 105 107 112 116 121 123 126 126 125 125 122 117 112
108 107 107 106 107 107 107 107 106 105 104 105 107 105 107 108 109 108 112 112 117 119 121 119 112 101 101 106 108 112 115 118 120 125 126 128 128 126 122 117 112 111 111
113 112 111 111 112 111 110 109 110 110 110 106 106 105 107 108 110 113 115 114 120 120 117 114 108 108 111 112 116 120 125 128 130 130 130 128 125 122 116 113 115 109 102
115 115 115 115 114 112 111 110 108 108 106 106 103 105 107 111 113 111 115 122 121 120 115 111 111 115 117 120 125 128 131 132 133 131 128 120 116 117 114 106 99 96 96
108 109 110 111 112 109 106 104 103 103 102 104 107 109 110 110 112 116 121 119 117 111 107 110 116 120 122 127 131 133 133 132 130 124 120 118 113 106 101 94 91 91 89
105 104 104 104 105 105 104 103 103 103 105 105 106 107 109 111 117 117 118 113 110 109 111 117 121 126 130 131 133 133 131 126 121 120 113 105 101 95 95 95 93 89 85
103 102 101 99 99 99 100 102 103 104 103 103 103 106 112 117 119 119 114 114 114 116 120 125 127 129 132 131 131 127 122 119 113 105 101 97 94 89 87 87 85 83 80
105 103 99 96 95 96 96 96 97 98 100 103 107 112 115 115 114 113 113 116 119 123 127 128 129 129 129 126 120 118 113 105 101 99 96 93 90 87 85 85 82 77 76
111 106 100 97 96 97 97 96 96 97 100 104 109 110 109 110 111 116 117 122 124 127 128 128 128 126 121 117 115 106 101 99 96 93 93 93 91 86 83 79 74 70 68
116 109 103 100 100 99 99 101 100 101 101 105 107 110 114 115 118 121 123 124 126 125 124 123 120 114 113 107 99 96 94 93 93 93 94 93 90 86 81 76 70 66 65
116 110 106 104 102 103 104 105 106 108 109 112 113 116 119 121 121 122 123 122 120 120 119 113 110 106 98 93 91 90 91 91 90 90 89 88 85 82 78 74 69 63 61
115 113 112 111 110 109 107 107 109 110 111 113 116 120 122 122 122 119 117 115 114 110 106 105 99 93 88 86 87 86 85 85 85 86 85 84 81 79 77 73 70 66 60
121 118 117 117 116 114 112 112 112 113 113 114 114 114 113 112 111 111 110 108 102 102 100 92 87 83 82 82 78 77 78 79 82 84 84 81 79 77 74 70 68 66 63
125 122 116 110 104 102 99 98 100 101 100 101 103 105 105 104 102 103 99 97 97 93 85 80 79 78 73 70 70 73 77 78 80 81 81 79 77 74 70 67 63 61 59
104 99 95 92 88 86 90 90 91 93 94 96 96 96 94 93 92 91 91 89 83 78 75 74 72 66 65 66 68 72 76 78 79 79 78 76 75 73 70 65 61 57 55
84 79 76 75 78 78 77 79 80 81 82 82 83 83 84 84 82 81 75 72 72 71 69 64 62 64 66 67 70 74 77 79 79 78 77 76 73 70 68 64 61 58 55
67 64 62 61 61 62 63 67 69 71 71 71 72 71 72 70 65 64 63 65 64 62 58 61 64 67 68 70 73 75 78 80 78 78 76 74 71 68 65 62 59 58 56
56 52 50 48 47 47 48 50 51 53 56 59 58 58 56 54 55 56 57 57 56 56 59 62 66 69 70 72 74 75 78 79 78 76 75 72 70 66 63 61 60 57 55
45 42 40 39 38 39 40 42 44 46 47 46 46 45 47 47 50 50 52 52 54 58 61 64 66 70 71 73 74 75 76 78 78 76 72 70 68 65 63 61 59 57 53
38 36 36 36 35 35 36 37 38 38 38 40 42 41 42 44 46 47 49 53 57 60 63 64 67 70 70 71 72 73 75 76 76 75 71 69 67 64 61 59 57 54 52
34 33 32 32 31 31 32 33 34 36 36 36 37 39 41 40 42 47 51 56 60 62 64 66 67 69 69 69 71 71 73 75 75 74 70 67 65 62 60 57 54 52 49
29 29 30 31 31 31 31 30 31 32 33 33 35 38 38 41 44 49 54 57 60 62 65 67 68 68 68 68 69 71 73 74 74 74 70 67 64 61 58 55 53 50 46
30 30 30 28 27 27 27 28 28 28 28 31 34 37 39 43 47 50 54 58 61 63 66 67 68 68 67 68 69 71 73 74 73 73 71 67 64 61 58 55 52 48 45
25 25 24 25 25 26 24 23 23 26 29 33 37 41 44 47 49 53 56 60 62 64 66 66 68 69 68 69 71 72 74 75 73 72 70 67 63 60 57 54 52 47 44
24 24 24 23 21 19 19 21 25 29 32 35 38 42 47 50 53 54 58 62 64 65 66 67 68 69 69 70 72 73 74 74 74 72 69 67 63 59 56 53 51 48 43

GFSGL_250_spd_174.txt.gz
Wind_Speed
95 96 97 98 100 101 102 103 104 106 109 109 111 113 114 112 112 111 111 110 108 107 105 103 104 104 106 110 113 116 119 123 116 111 110 112 116 121 124 128 129 131 131
97 98 100 101 102 104 105 107 110 111 112 112 113 112 112 112 112 110 108 106 104 102 101 103 104 107 110 115 116 119 122 119 115 114 115 120 125 129 131 133 134 130 126
101 103 105 107 108 110 112 111 111 112 113 113 110 107 105 107 108 107 103 102 102 101 104 105 107 110 113 117 119 124 121 115 116 119 123 128 132 133 134 134 129 122 116
109 110 112 113 114 114 113 113 114 114 111 107 102 100 100 102 103 100 103 101 101 105 105 106 109 113 118 118 123 121 117 116 120 125 129 132 134 134 130 122 119 114 107
115 116 116 117 116 116 116 117 117 112 106 102 98 95 95 95 96 98 102 103 104 104 104 111 115 114 117 121 117 115 119 122 127 130 132 133 132 126 119 114 104 99 100
120 120 120 120 121 121 120 116 112 107 102 99 96 94 93 93 95 96 97 99 103 106 108 109 112 115 116 116 120 121 125 128 130 132 132 130 122 118 108 101 96 93 93
124 124 124 124 123 122 119 113 109 104 98 94 92 92 92 91 92 94 95 97 100 103 106 109 112 115 116 120 123 125 128 130 131 130 126 119 114 103 97 93 92 92 90
130 129 128 127 124 119 116 113 107 103 99 96 92 90 90 91 94 94 96 99 102 105 110 114 117 119 120 123 126 127 128 127 126 122 116 107 98 94 93 93 92 92 91
134 133 133 128 126 122 119 113 109 106 99 98 95 96 96 97 98 100 102 105 107 111 115 116 118 121 122 124 125 124 122 121 117 112 100 96 93 92 93 92 91 88 86
136 136 134 133 130 128 123 116 111 106 104 103 101 101 100 102 104 105 107 110 112 115 117 119 120 122 123 121 120 118 116 112 106 94 91 92 91 90 90 89 86 83 78
139 138 137 135 132 128 123 116 114 109 108 108 107 106 104 104 106 107 110 114 116 118 118 118 118 117 115 115 114 111 107 99 91 89 90 90 89 89 88 86 83 79 74
142 141 137 133 123 122 118 115 114 110 108 108 106 107 108 110 111 110 112 112 112 112 111 111 110 110 111 109 105 101 90 87 86 85 86 87 87 87 86 84 81 77 74
132 128 128 123 115 115 112 102 96 93 95 94 94 93 96 98 100 102 103 103 101 101 102 104 105 103 100 97 89 83 82 82 80 81 82 83 83 84 85 83 81 78 73
125 120 118 120 114 103 94 92 89 89 90 87 88 87 89 90 92 93 94 95 95 95 95 94 92 90 86 78 77 77 78 77 77 78 80 82 82 84 85 82 81 77 73
125 120 118 108 100 92 85 83 81 80 80 79 80 80 80 81 81 81 82 83 83 82 82 82 79 71 70 71 73 73 74 74 75 77 80 82 83 84 83 80 78 75 68
123 117 108 99 88 80 76 72 70 68 66 66 66 66 68 70 71 72 72 71 70 71 70 67 63 64 66 66 67 69 71 72 74 76 79 81 82 83 82 79 76 72 67
108 94 82 78 71 67 64 62 59 57 54 53 53 54 55 58 59 59 57 57 57 55 55 57 60 61 60 62 65 67 70 71 72 75 78 80 81 82 80 77 75 71 66
79 73 66 62 58 55 52 50 47 45 43 42 42 41 41 41 43 44 45 45 46 48 52 55 55 57 60 62 65 68 71 72 74 76 78 80 81 81 78 74 71 68 65
61 56 53 49 45 41 38 35 32 30 30 30 31 31 31 33 34 36 39 42 45 48 49 51 56 59 60 64 66 69 72 74 74 75 77 80 81 80 77 74 70 66 62
48 44 41 36 33 30 28 27 25 24 24 25 25 26 28 31 33 35 38 40 42 44 48 53 57 60 62 66 68 70 72 75 75 74 76 78 79 78 76 71 67 64 60
35 33 31 29 27 25 24 23 23 24 25 26 27 28 30 32 32 33 37 40 42 46 49 53 57 60 64 66 67 69 71 73 74 74 76 77 77 76 73 68 65 61 59
27 26 26 27 27 27 26 26 25 25 26 27 28 29 28 28 31 35 39 41 43 46 49 53 56 59 62 65 67 69 71 72 72 73 75 76 76 74 70 66 63 59 57
26 27 28 28 27 26 26 26 26 25 25 26 26 24 25 28 32 34 37 39 42 46 50 54 56 59 62 65 67 69 70 71 72 73 75 76 75 72 68 64 61 58 54
24 24 26 27 27 26 25 24 24 24 21 21 21 23 25 27 30 35 38 41 45 48 52 55 59 61 64 66 68 69 70 71 72 74 75 75 74 71 67 63 59 56 53
23 23 24 24 23 22 21 20 18 17 17 19 19 22 25 29 33 37 42 46 49 51 55 57 61 64 65 67 69 70 71 71 73 75 76 76 73 70 66 63 59 55 52
20 19 18 17 16 15 14 14 14 14 16 19 22 25 29 33 37 41 46 50 54 55 59 61 64 67 68 68 70 70 70 72 74 75 76 75 72 68 65 62 59 55 51